FW0579 Weather Reports


Display with metric or nautical units.
time (UTC)temp
F
wind
direction
speed
MPH
gust
MPH
rain 1hr
in
rain 24hr
in
rain mn
in
humidity
%
barometer
mb
20260507141519 54 259 2.0 7.0 0.00 0.00 0.00 90 1018.4
20260507140019 54 252 0.0 3.0 0.00 0.00 0.00 90 1018.2
20260507134511 53 248 0.0 0.0 0.00 0.00 0.00 90 1018.1
20260507133008 53 247 0.0 0.0 0.00 0.00 0.00 89 1017.9
20260507131516 53 247 0.0 0.0 0.00 0.00 0.00 89 1017.7
20260507130004 53 247 0.0 0.0 0.00 0.00 0.00 89 1017.7
20260507124508 53 247 0.0 0.0 0.00 0.00 0.00 89 1017.6
20260507123002 53 247 0.0 0.0 0.00 0.00 0.00 88 1017.6
20260507121603 53 247 0.0 0.0 0.00 0.00 0.00 88 1017.5
20260507120100 54 247 0.0 0.0 0.00 0.00 0.00 88 1017.4
20260507114610 54 247 0.0 0.0 0.00 0.00 0.00 88 1017.4
20260507113128 54 247 0.0 0.0 0.00 0.00 0.00 88 1017.4
20260507111558 54 247 0.0 0.0 0.00 0.00 0.00 88 1017.4
20260507110001 54 247 0.0 0.0 0.00 0.00 0.00 87 1017.4
20260507104559 54 247 0.0 0.0 0.00 0.00 0.00 87 1017.4
20260507103059 55 247 0.0 0.0 0.00 0.00 0.00 87 1017.5
20260507101557 55 247 0.0 0.0 0.00 0.00 0.00 87 1017.5
20260507100050 55 247 0.0 0.0 0.00 0.00 0.00 87 1017.3
20260507094547 55 247 0.0 0.0 0.00 0.00 0.00 86 1017.4
20260507093049 55 247 0.0 0.0 0.00 0.00 0.00 86 1017.6
20260507091547 56 247 0.0 0.0 0.00 0.00 0.00 86 1017.7
20260507090044 56 247 0.0 0.0 0.00 0.00 0.00 86 1017.8
20260507084547 57 247 0.0 0.0 0.00 0.00 0.00 86 1017.9
20260507083041 57 247 0.0 0.0 0.00 0.00 0.00 86 1017.8
20260507081546 57 246 0.0 0.0 0.00 0.00 0.00 85 1017.9
20260507080043 57 246 0.0 2.0 0.00 0.00 0.00 84 1017.9
20260507074538 58 246 0.0 0.0 0.00 0.00 0.00 84 1017.9
20260507073034 58 246 0.0 0.0 0.00 0.00 0.00 83 1017.7
20260507071531 59 246 0.0 0.0 0.00 0.00 0.00 82 1017.7
20260507070030 59 246 0.0 0.0 0.00 0.00 0.00 82 1017.7
20260507064528 60 246 0.0 0.0 0.00 0.00 0.00 82 1017.6
20260507063028 60 246 0.0 3.0 0.00 0.00 0.00 81 1017.6
20260507061525 61 246 2.0 4.0 0.00 0.00 0.00 80 1017.6
20260507060022 61 261 2.0 6.0 0.00 0.00 0.00 79 1017.6
20260507054520 62 254 2.0 4.0 0.00 0.00 0.00 78 1017.5
20260507053018 63 251 2.0 5.0 0.00 0.00 0.00 77 1017.6
20260507051516 63 228 4.0 10.0 0.00 0.00 0.00 77 1017.5
20260507050024 64 247 4.0 9.0 0.00 0.00 0.00 76 1017.5
20260507044511 65 263 1.0 3.0 0.00 0.00 0.00 75 1017.4
20260507043019 66 259 1.0 6.0 0.00 0.00 0.00 74 1017.3
20260507041506 67 256 4.0 9.0 0.00 0.00 0.00 72 1017.3
20260507040007 68 275 5.0 9.0 0.00 0.00 0.00 70 1017.1
20260507034508 69 269 4.0 11.0 0.00 0.00 0.00 69 1016.9
20260507033005 71 225 5.0 9.0 0.00 0.00 0.00 66 1016.8
20260507031504 72 276 0.0 0.0 0.00 0.00 0.00 61 1016.6
20260507030006 73 276 0.0 2.0 0.00 0.00 0.00 59 1016.6
20260507024600 75 276 1.0 3.0 0.00 0.00 0.00 57 1016.4
20260507023109 75 278 0.0 2.0 0.00 0.00 0.00 57 1016.4
20260507021557 76 278 0.0 2.0 0.00 0.00 0.00 56 1016.2
20260507020104 77 277 1.0 3.0 0.00 0.00 0.00 54 1016.1
20260507014558 77 252 2.0 4.0 0.00 0.00 0.00 53 1016.2
20260507013057 78 273 2.0 7.0 0.00 0.00 0.00 52 1016.3
20260507011556 79 252 0.0 3.0 0.00 0.00 0.00 51 1016.2
20260507010056 79 279 0.0 5.0 0.00 0.00 0.00 50 1016.3
20260507004555 78 260 1.0 4.0 0.00 0.00 0.00 51 1016.2
20260507003111 78 292 2.0 6.0 0.00 0.00 0.00 51 1016.2
20260507001613 79 355 1.0 4.0 0.00 0.00 0.00 50 1016.3
20260507000054 78 267 2.0 8.0 0.00 0.00 0.00 51 1016.4
20260506234554 78 243 3.0 7.0 0.00 0.00 0.00 49 1016.5
20260506233051 79 232 1.0 8.0 0.00 0.00 0.00 49 1016.5
20260506231559 79 40 1.0 3.0 0.00 0.00 0.00 48 1016.7
20260506230058 78 16 3.0 7.0 0.00 0.00 0.00 48 1016.9
20260506224550 79 316 1.0 4.0 0.00 0.00 0.00 48 1017.2
20260506223048 79 270 3.0 10.0 0.00 0.00 0.00 50 1017.4
20260506221603 78 98 1.0 9.0 0.00 0.00 0.00 49 1017.5
20260506220046 78 299 2.0 5.0 0.00 0.00 0.00 49 1017.7
20260506214543 78 241 1.0 6.0 0.00 0.00 0.00 52 1018.0
20260506213043 77 271 3.0 6.0 0.00 0.00 0.00 51 1018.1
20260506211536 76 270 3.0 7.0 0.00 0.00 0.00 54 1018.3
20260506210049 75 287 2.0 4.0 0.00 0.00 0.00 54 1018.5
20260506204535 74 238 2.0 7.0 0.00 0.00 0.00 55 1018.6
20260506203037 74 276 1.0 4.0 0.00 0.00 0.00 55 1018.6
20260506201534 74 337 0.0 4.0 0.00 0.00 0.00 55 1018.8
20260506200035 74 246 2.0 4.0 0.00 0.00 0.00 54 1019.1
20260506194533 75 333 1.0 6.0 0.00 0.00 0.00 55 1019.2
20260506193036 74 253 1.0 4.0 0.00 0.00 0.00 57 1019.2
20260506191527 72 240 1.0 5.0 0.00 0.00 0.00 59 1019.3
20260506190024 72 259 1.0 3.0 0.00 0.00 0.00 58 1019.5
20260506184521 71 267 3.0 7.0 0.00 0.00 0.00 60 1019.6
20260506183015 69 263 1.0 7.0 0.00 0.00 0.00 64 1019.7
20260506181511 68 23 3.0 9.0 0.00 0.00 0.00 66 1019.7
20260506180011 68 246 2.0 6.0 0.00 0.00 0.00 67 1019.6
20260506174504 66 252 4.0 8.0 0.00 0.00 0.00 69 1019.7
20260506173003 65 254 3.0 8.0 0.00 0.00 0.00 71 1019.8
20260506171558 65 247 3.0 12.0 0.00 0.00 0.00 72 1019.8
20260506170106 63 360 2.0 8.0 0.00 0.00 0.00 74 1019.8
20260506164603 62 360 3.0 9.0 0.00 0.00 0.00 75 1019.8
20260506163056 61 360 4.0 8.0 0.00 0.00 0.00 77 1019.9
20260506161546 60 269 3.0 8.0 0.00 0.00 0.00 80 1019.9
20260506160048 59 259 3.0 8.0 0.00 0.00 0.00 82 1019.9
20260506154542 58 232 5.0 8.0 0.00 0.00 0.00 82 1019.9
20260506153034 58 243 4.0 8.0 0.00 0.00 0.00 83 1019.9
20260506151537 57 236 4.0 9.0 0.00 0.00 0.00 84 1019.8
20260506150031 57 257 1.0 4.0 0.00 0.00 0.00 86 1019.9
20260506144529 57 360 0.0 4.0 0.00 0.00 0.00 86 1020.0
20260506143025 56 360 0.0 1.0 0.00 0.00 0.00 86 1019.8